MARSHFIELD, MA current weather conditions

sailwx.info

Wind from 230 at 9 knots gusting 17

Air temperature 8.0° C
Visibility: greater than 8.7 NM
Dewpoint -1.0° C

Last reported at 2014-Nov-23 06:35 UTC.
Time now 2014-Nov-23 08:26 UTC

Location: N 42°06' W 070°40'.
View on Google Maps.

See reports from other nearby stations

  
Tides and Currents Weather Stations Pressure Air Temp Water Temp Dewpoint Dewpoint Depression Visibility Wind Speed Wind Dir Waves Ship Positions
date/time (UTC)wind fromknots sea level pressurealtimeterstation pressurevisibilityair tempwater tempwave heightnotes
2014-Nov-23 07:35 250 9 gusting 17 8.7 8.0
2014-Nov-23 07:15 240 9 gusting 15 8.7
2014-Nov-23 06:55 240 9 gusting 20 8.7 8.0
2014-Nov-23 06:35 230 9 gusting 17 8.7 8.0
2014-Nov-23 06:15 230 8 gusting 19 8.7
2014-Nov-23 05:55 240 9 gusting 24 8.7 8.0
2014-Nov-23 05:35 250 9 gusting 24 8.7 7.0
2014-Nov-23 05:15 240 9 gusting 18 8.7 7.0
2014-Nov-23 04:55 230 9 gusting 16 8.7
2014-Nov-23 04:35 240 12 gusting 18 8.7 7.0
2014-Nov-23 04:15 230 10 gusting 16 8.7
2014-Nov-23 03:55 240 8 gusting 20 8.7 7.0
2014-Nov-23 03:35 230 10 gusting 16 8.7 7.0
2014-Nov-23 03:15 240 13 gusting 18 8.7 6.0
2014-Nov-23 02:55 240 9 gusting 17 8.7 7.0
2014-Nov-23 02:35 230 14 gusting 22 8.7 6.0
2014-Nov-23 02:15 240 12 gusting 20 8.7 6.0
2014-Nov-23 01:55 240 13 gusting 20 8.7 6.0
2014-Nov-23 01:35 230 17 gusting 23 8.7 6.0
2014-Nov-23 01:15 230 14 gusting 24 8.7 6.0
2014-Nov-23 00:55 230 13 gusting 21 8.7 6.0
2014-Nov-23 00:35 220 12 gusting 20 8.7 5.0
2014-Nov-23 00:15 220 13 gusting 23 8.7 5.0
2014-Nov-22 23:55 230 9 gusting 20 8.7 5.0
2014-Nov-22 23:35 230 13 gusting 25 8.7 4.0
2014-Nov-22 23:15 220 12 gusting 26 8.7 4.0
2014-Nov-22 22:55 230 12 gusting 22 8.7 4.0
2014-Nov-22 22:35 230 11 gusting 27 8.7 4.0
2014-Nov-22 22:15 230 11 gusting 17 8.7 4.0
2014-Nov-22 21:55 220 16 gusting 25 8.7 4.0
2014-Nov-22 21:35 230 8 gusting 19 8.7 4.0
2014-Nov-22 21:15 230 10 gusting 17 8.7 4.0
2014-Nov-22 20:55 220 9 gusting 20 8.7 5.0
2014-Nov-22 20:35 220 13 gusting 22 8.7 6.0
2014-Nov-22 20:15 240 12 gusting 19 8.7 6.0
2014-Nov-22 19:55 230 13 gusting 20 8.7 6.0
2014-Nov-22 19:35 230 9 gusting 22 8.7 7.0
2014-Nov-22 19:15 220 12 gusting 27 8.7 7.0
2014-Nov-22 18:55 220 9 gusting 20 8.7 7.0
2014-Nov-22 18:35 230 9 gusting 19 8.7 6.0
2014-Nov-22 18:15 230 10 gusting 24 8.7 6.0
2014-Nov-22 17:55 220 12 gusting 20 8.7 6.0
2014-Nov-22 17:35 220 9 gusting 18 8.7 6.0
2014-Nov-22 17:15 210 10 gusting 20 8.7 4.0
2014-Nov-22 16:55 230 12 gusting 25 8.7 4.0
2014-Nov-22 16:35 220 13 gusting 22 8.7 4.0
2014-Nov-22 16:15 230 14 gusting 25 8.7 4.0
2014-Nov-22 15:55 220 15 gusting 23 8.7 3.0
2014-Nov-22 15:35 230 11 gusting 18 8.7 3.0
2014-Nov-22 15:15 230 12 gusting 19 8.7
2014-Nov-22 14:55 250 8 gusting 15 8.7
2014-Nov-22 14:35 220 10 gusting 14 8.7 1.0
2014-Nov-22 14:15 220 8 8.7
2014-Nov-22 13:55 230 5 8.7
2014-Nov-22 13:35 240 4 8.7
2014-Nov-22 13:15 260 6 8.7
2014-Nov-22 12:55 260 2 8.7
2014-Nov-22 12:35 250 4 8.7
2014-Nov-22 12:15 250 4 8.7
2014-Nov-22 11:55 240 5 8.7
2014-Nov-22 11:35 240 6 8.7
2014-Nov-22 11:15 240 5 8.7
2014-Nov-22 10:55 240 6 8.7
2014-Nov-22 10:35 260 6 8.7
2014-Nov-22 10:15 250 7 8.7
2014-Nov-22 09:55 240 6 8.7
2014-Nov-22 09:35 250 5 8.7
2014-Nov-22 09:15 250 5 8.7
2014-Nov-22 08:55 260 4 8.7
2014-Nov-22 08:35 240 5 8.7
2014-Nov-22 08:15 240 3 8.7
2014-Nov-22 07:55 230 2 8.7
2014-Nov-22 07:35 250 4 8.7
2014-Nov-22 07:15 240 4 8.7
2014-Nov-22 06:55 240 6 8.7
2014-Nov-22 06:35 250 4 8.7
2014-Nov-22 06:15 240 4 8.7
2014-Nov-22 05:55 270 2 8.7
2014-Nov-22 05:35 270 3 8.7
2014-Nov-22 05:15 270 4 8.7
2014-Nov-22 04:55 260 5 8.7
2014-Nov-22 04:35 270 2 8.7
2014-Nov-22 04:15 270 5 8.7
2014-Nov-22 03:55 270 4 8.7
2014-Nov-22 03:35 280 4 8.7
2014-Nov-22 03:15 260 6 8.7
2014-Nov-22 02:55 270 6 8.7
2014-Nov-22 02:35 270 3 8.7
2014-Nov-22 02:15 270 4 8.7
2014-Nov-22 01:55 280 4 8.7
2014-Nov-22 01:35 290 7 8.7
2014-Nov-22 01:15 290 7 8.7
2014-Nov-22 00:55 270 2 8.7
2014-Nov-22 00:35 300 7 8.7
2014-Nov-22 00:15 290 6 8.7
2014-Nov-21 23:55 290 5 8.7
2014-Nov-21 23:35 280 5 8.7
2014-Nov-21 23:15 290 5 8.7
2014-Nov-21 22:55 280 6 8.7
2014-Nov-21 22:35 270 5 8.7
2014-Nov-21 22:15 300 5 8.7
2014-Nov-21 21:55 300 6 8.7
2014-Nov-21 21:35 300 7 8.7
2014-Nov-21 21:15 290 8 gusting 16 8.7-0.0
2014-Nov-21 20:55 300 7 gusting 19 8.7 1.0
2014-Nov-21 20:35 300 10 gusting 23 8.7 1.0
2014-Nov-21 20:15 310 9 gusting 17 8.7 2.0
2014-Nov-21 19:55 300 10 gusting 20 8.7 2.0
2014-Nov-21 19:35 300 10 gusting 18 8.7 2.0
2014-Nov-21 19:15 320 9 gusting 20 8.7 2.0
2014-Nov-21 18:55 300 11 gusting 19 8.7 2.0
2014-Nov-21 18:35 310 13 gusting 23 8.7 2.0
2014-Nov-21 18:15 270 8 gusting 20 8.7 3.0
2014-Nov-21 17:55 290 8 gusting 17 8.7 3.0
2014-Nov-21 17:35 300 11 gusting 22 8.7 3.0
2014-Nov-21 17:15 300 10 gusting 20 8.7 2.0
2014-Nov-21 15:55 290 9 gusting 17 8.7
2014-Nov-21 15:35 300 13 gusting 23 8.7 2.0
2014-Nov-21 15:15 290 12 gusting 20 8.7 2.0
2014-Nov-21 14:55 290 7 gusting 22 8.7 1.0
2014-Nov-21 14:35 310 11 gusting 15 8.7 1.0
2014-Nov-21 14:15 280 9 gusting 18 8.7-0.0
2014-Nov-21 13:55 280 11 gusting 19 8.7-0.0
2014-Nov-21 13:35 290 11 gusting 20 8.7
2014-Nov-21 13:15 280 9 gusting 17 8.7
2014-Nov-21 12:55 280 8 gusting 14 8.7-0.0
2014-Nov-21 12:35 270 9 gusting 14 8.7-1.0
2014-Nov-21 12:15 280 6 8.7
2014-Nov-21 11:55 260 7 8.7
2014-Nov-21 11:35 270 7 8.7
2014-Nov-21 11:15 280 6 8.7
2014-Nov-21 10:55 270 8 8.7
2014-Nov-21 10:35 260 6 8.7
2014-Nov-21 10:15 270 5 8.7
2014-Nov-21 09:55 280 4 8.7
2014-Nov-21 09:35 280 7 8.7
2014-Nov-21 09:15 290 7 gusting 15 8.7-1.0
2014-Nov-21 08:55 290 7 gusting 17 8.7
2014-Nov-21 08:35 300 9 gusting 15 8.7
2014-Nov-21 08:15 300 5 8.7